星链-3889 (STARLINK-3889 )

导读 | 星芒AI

STARLINK-3889 是由 SpaceX 发射的星链(Starlink)卫星之一,属于其低轨卫星互联网星座的一部分。该卫星旨在为全球用户提供高速、低延迟的互联网服务,尤其在偏远和网络基础设施不足的地区。它运行在约 550 公里的轨道高度,采用先进的通信技术,支持宽带数据传输。作为星链计划的组成部分,STARLINK-3889 有助于扩大全球互联网接入,推动数字包容性。

基本信息
目录编号:
52331
目录名称:
STARLINK-3889
国际标识:
2022-045A
轨道中心:
EARTH
卫星名称:
星链-3889
卫星全名:
星链-3889 (STARLINK-3889 )
卫星状态:
在轨 (已飞行1285 天)
发射日期:
2022-04-29 UTC
国别 :
美国 (US)
星等 :
--
轨道信息
数据来源 国际轨道数据
星历时间: 2025-11-04T22:04:13+0800
6小时前
查看轨道信息
半长轴: 6918.03km
偏心率: 0.0001693
轨道倾角: 53.217°
近地点辐角 90.406°
升交点赤经 50.730°
平近点角 269.713°
近地点: 538.723km
远地点: 541.067km
周期: 95.441分钟
每日圈数: 15.087911
详细信息
固有亮度:
5
最大亮度:
2.5
卫星平台:
Starlink v1.5
覆盖范围:
全球
运营商:
太空探索技术公司
运营商所在国:
美国
制造商(研发单位):
太空探索技术公司
制造商所在国:
美国
使用方式:
暂无
卫星简介
星链(Starlink)计划是由太空探索技术公司(SpaceX)提出的一个巨型低轨卫星互联网星座项目,计划在2019年至2024年间在太空搭建由约1.2万颗卫星组成的“星链”网络,其中1584颗将部署在地球上空550千米处的近地轨道,并从2020年开始工作。该卫星仍在工作。
2D轨道图
3D轨道图
轨道高度分析图
轨道倾角分析图
轨道综合分析图
查看轨道综合分析图